Regional Weather Roundup
Issued by NWS

Home | Current Version | Previous Version | Text Only | Print | Product List | Glossary On
Versions: 1 2 3 4 5 6 7 8 9 10 11 12 13 14 15 16 17 18 19 20 21 22 23 24 25 26 27 28 29 30 31 32 33 34 35 36 37 38 39 40 41 42 43 44 45 46 47 48 49 50
000
ASUS43 KMKX 251900
RWRWI

WISCONSIN REGIONAL WEATHER ROUNDUP
NATIONAL WEATHER SERVICE MILWAUKEE/SULLIVAN WI
200 PM CDT MON SEP 25 2017

NOTE: "FAIR" INDICATES FEW OR NO CLOUDS BELOW 12,000 FEET WITH NO
SIGNIFICANT WEATHER AND/OR OBSTRUCTIONS TO VISIBILITY.

WIZ001-002-006>008-014>016-023>028-252000-
NORTHWEST WISCONSIN

CITY           SKY/WX    TMP DP  RH WIND       PRES   REMARKS
SUPERIOR ARPT  CLOUDY    59  53  82 NE3       30.01S
ASHLAND        CLOUDY    65  57  75 N5        29.99F
HAYWARD        CLOUDY    64  59  83 N5        29.98F
SIREN          DRIZZLE   58  57  94 N5        30.00S
CUMBERLAND     CLOUDY    63  59  88 N8        29.98S
RICE LAKE      CLOUDY    70  63  78 NW8       29.98F
CHETEK         MOSUNNY   74  66  77 NW3       29.95S
LADYSMITH      PTSUNNY   80  64  59 CALM      29.96F HX  81
EAU CLAIRE     NOT AVBL
MENOMONIE      PTSUNNY   78  66  66 CALM      29.92F HX  80
NEW RICHMOND   CLOUDY    63  61  93 N8        29.98S
OSCEOLA        CLOUDY    61  61 100 N7        30.01F
$$

WIZ003>005-009-010-017-018-252000-
NORTH CENTRAL WISCONSIN

CITY           SKY/WX    TMP DP  RH WIND       PRES   REMARKS
MANITOWISH WTR NOT AVBL
ARBOR VITAE    HAZE      80  65  61 S3        29.98S VSB 1/2 HX  82
WOODRUFF       HAZE      80  65  61 S3        29.98S VSB 1/2 HX  82
RHINELANDER    PTSUNNY   83  65  54 VRB7      29.97F HX  85
EAGLE RIVER    MOSUNNY   81  62  51 CALM      29.96F HX  82
LAND O LAKES   MOSUNNY   80  62  55 CALM      29.99F HX  81
PHILLIPS       CLOUDY    79  65  61 CALM      29.94F HX  81
TOMAHAWK       MOSUNNY   81  64  55 S3        29.96F HX  83
MEDFORD        MOSUNNY   80  64  57 SE7       29.95F HX  82
MERRILL        CLOUDY    84  66  53 S7        29.95F HX  86
$$

WIZ029-030-035-036-043>047-252000-
CENTRAL WISCONSIN

CITY           SKY/WX    TMP DP  RH WIND       PRES   REMARKS
WAUSAU         MOSUNNY   83  62  49 S8        29.92F HX  84
MOSINEE        MOSUNNY   82  64  54 S8        29.95F HX  84
MARSHFIELD     MOSUNNY   86  63  45 S12G17    29.92F HX  87
STEVENS POINT  PTSUNNY   83  62  48 S6        29.95F HX  84
WAUPACA        SUNNY     90  61  38 SE7       29.95F HX  90
WAUTOMA        MOSUNNY   87  64  46 S5        29.93F HX  88
WISC RAPIDS    SUNNY     88  64  44 SW12      29.94F HX  89
CAMP DOUGLAS   NOT AVBL
$$

WIZ011>013-019>022-031-037>040-048>050-252000-
NORTHEAST WISCONSIN

CITY           SKY/WX    TMP DP  RH WIND       PRES   REMARKS
ANTIGO         MOSUNNY   84  63  50 SW10      29.97F HX  85
SHAWANO        SUNNY     88  63  43 S5        29.95S HX  89
OCONTO         SUNNY     83  65  55 SE5       29.94F HX  84
STURGEON BAY   PTSUNNY   83  69  62 SE8       29.97F HX  86
GREEN BAY      SUNNY     89  63  41 SW7       29.94F HX  90
MANITOWOC      SUNNY     79  65  62 S12       29.97F HX  81
APPLETON       MOSUNNY   86  61  42 SE5       29.94F HX  86
CLINTONVILLE   SUNNY     88  61  40 S7        29.94F HX  88
OSHKOSH        SUNNY     87  64  46 SW6       29.94F HX  88
$$

WIZ032>034-041-042-053>061-252000-
SOUTHWEST WISCONSIN

CITY           SKY/WX    TMP DP  RH WIND       PRES   REMARKS
LA CROSSE      CLOUDY    84  66  54 SW8       29.90F HX  86
SPARTA         MOSUNNY   87  65  47 S7G16     29.92F HX  89
VIROQUA        CLOUDY    85  66  52 SE10      29.94F HX  87
BOSCOBEL       MOSUNNY   91  62  37 S9        29.90F HX  91
PRAIRIE DU CHI MOSUNNY   87  58  37 S12       29.89F HX  86
PLATTEVILLE    SUNNY     89  62  39 S12G17    29.94F HX  89
$$

WIZ056-057-062-063-064-067-068-252000-
SOUTH CENTRAL WISCONSIN

CITY           SKY/WX    TMP DP  RH WIND       PRES   REMARKS
REEDSBURG      SUNNY     88  64  44 S10       29.93F HX  89
BARABOO/DELLS  SUNNY     87  60  39 SW8       29.94F HX  87
LONE ROCK      NOT AVBL
MINERAL POINT  MOSUNNY   91  59  33 S7        29.95F HX  90
MADISON        MOSUNNY   89  62  40 SE9       29.93F HX  89
MIDDLETON      MOSUNNY   90  60  37 SE8       29.95F HX  89
WATERTOWN      SUNNY     88  62  41 SW8       29.96F HX  89
MONROE         SUNNY     88  55  33 S13       29.96F HX  86
JANESVILLE     MOSUNNY   91  52  25 SW7       29.94F HX  89
$$

WIZ051-052-058>065-066-070>072-252000-
SOUTHEAST WISCONSIN

CITY           SKY/WX    TMP DP  RH WIND       PRES   REMARKS
MILWAUKEE      MOSUNNY   83  63  50 SE13      29.96F HX  84
WAUKESHA       PTSUNNY   86  57  37 SW9       29.98F HX  85
MILWAUKEE/TIMM MOSUNNY   86  57  37 E9        29.97F HX  85
RACINE         SUNNY     85  66  53 SE12      29.98F HX  87
BURLINGTON     SUNNY     88  58  35 CALM      29.96F HX  87
KENOSHA        MOSUNNY   90  62  39 SE12      29.96F HX  90
FOND DU LAC    SUNNY     87  60  40 SW6       29.95F HX  87
SHEBOYGAN      SUNNY     84  69  60 SE7       29.96F HX  88
WEST BEND        N/A     88  54  31 CALM      29.97F HX  86
JUNEAU         SUNNY     86  63  47 S6        29.97F HX  86
$$

LSZ147-162-252000-
LAKE SUPERIOR

STATION/POSITION TIME  TEMP    WIND        PRES    WAVE
                       AIR SEA DIR/SP/G            HT/PER
                 (UTC) (F)     (DEG/KT/KT) (MB)    (FT/S)
W MID LAKE BUOY  1750   57 55  270/  6/  8 1015.2R   1/ 3
DEVILS ISLAND    1800   60     300/  8/  9 1015.9F
SAXON HARBOR     1840   62     340/  3/  6 1015.2F
$$

LMZ867-665-643>646-252000-
LAKE MICHIGAN

STATION/POSITION TIME  TEMP    WIND        PRES    WAVE
                       AIR SEA DIR/SP/G            HT/PER
                 (UTC) (F)     (DEG/KT/KT) (MB)    (FT/S)
S GREEN BAY BUOY 1800   75 70  140/  2/  2 1014.8F
N MID LAKE BUOY  1750   69 67  190/ 10/ 12 1015.9F   1/ 4
NORTHPORT PIER   1840   74     150/  8/ 12 1014.6F
KEWAUNEE LAKESHO 1830   68     170/ 10/ 11 1014.3F
SHEBOYGAN LAKESH 1800   71     170/ 10/ 10 1014.7F
PORT WASHINGTON  1830   76     160/  3/  6 1015.9F
ATWATER BUOY     1709   69 61  160/  8/  8 1015.7F
MILWAUKEE LAKESH 1830   69     130/  3/  4   N/A
S MID LAKE BUOY  1750   72 71  130/ 10/ 12 1015.8F   1/ 3
KENOSHA   LAKESH 1800   74     160/ 11/ 12 1014.9
$$

TC  - TEMPERATURE IN CELSIUS
VSB - VISIBILITY IN STATUTE MILES
WCI - WIND CHILL INDEX
HX  - HEAT INDEX





USA.gov is the U.S. government's official web portal to all federal, state and local government web resources and services.